Time,TemperatureF,DewpointF,PressureIn,WindDirection,WindDirectionDegrees,WindSpeedMPH,WindSpeedGustMPH,Humidity,HourlyPrecipIn,Conditions,Clouds,dailyrainin,SoftwareType,DateUTC
2013-08-26 00:05:00,62.3,58.0,30.08,North,0,0.0,0.0,85,0.00,,,0.00,vanprod,2013-08-26 04:05:00,
2013-08-26 00:15:00,62.4,58.0,30.08,North,0,0.0,0.0,84,0.00,,,0.00,vanprod,2013-08-26 04:15:00,
2013-08-26 00:25:00,62.4,58.0,30.08,North,0,0.0,0.0,84,0.00,,,0.00,vanprod,2013-08-26 04:25:00,
2013-08-26 00:35:00,62.6,58.0,30.07,North,0,0.0,0.0,85,0.00,,,0.00,vanprod,2013-08-26 04:35:00,
2013-08-26 00:45:00,62.6,58.0,30.08,North,0,0.0,0.0,84,0.00,,,0.00,vanprod,2013-08-26 04:45:00,
2013-08-26 00:55:00,62.7,58.0,30.08,North,0,0.0,0.0,85,0.00,,,0.00,vanprod,2013-08-26 04:55:00,
2013-08-26 01:05:00,62.7,58.0,30.07,North,0,0.0,0.0,85,0.00,,,0.00,vanprod,2013-08-26 05:05:00,
2013-08-26 01:15:00,62.7,58.0,30.07,North,0,0.0,0.0,84,0.00,,,0.00,vanprod,2013-08-26 05:15:00,
2013-08-26 01:25:00,62.9,58.0,30.07,North,0,0.0,0.0,84,0.00,,,0.00,vanprod,2013-08-26 05:25:00,
2013-08-26 01:35:00,62.9,58.0,30.06,North,0,0.0,0.0,85,0.00,,,0.00,vanprod,2013-08-26 05:35:00,
2013-08-26 01:45:00,63.1,59.0,30.06,North,0,0.0,0.0,85,0.00,,,0.00,vanprod,2013-08-26 05:45:00,
2013-08-26 01:55:00,63.1,59.0,30.06,North,0,0.0,0.0,85,0.00,,,0.00,vanprod,2013-08-26 05:55:00,
2013-08-26 02:05:00,63.1,58.0,30.05,North,0,0.0,0.0,84,0.00,,,0.00,vanprod,2013-08-26 06:05:00,
2013-08-26 02:15:00,63.2,58.0,30.05,North,0,0.0,0.0,84,0.00,,,0.00,vanprod,2013-08-26 06:15:00,
2013-08-26 02:25:00,63.2,58.0,30.05,North,0,0.0,0.0,84,0.00,,,0.00,vanprod,2013-08-26 06:25:00,
2013-08-26 02:35:00,63.2,58.0,30.05,North,0,0.0,0.0,83,0.00,,,0.00,vanprod,2013-08-26 06:35:00,
2013-08-26 02:45:00,63.4,58.0,30.06,North,0,0.0,0.0,83,0.00,,,0.00,vanprod,2013-08-26 06:45:00,
2013-08-26 02:55:00,63.4,58.0,30.06,North,0,0.0,0.0,81,0.00,,,0.00,vanprod,2013-08-26 06:55:00,
2013-08-26 03:05:00,63.4,58.0,30.06,North,0,0.0,0.0,81,0.00,,,0.00,vanprod,2013-08-26 07:05:00,
2013-08-26 03:15:00,63.7,58.0,30.06,North,0,0.0,0.0,82,0.00,,,0.00,vanprod,2013-08-26 07:15:00,
2013-08-26 03:25:00,63.7,57.0,30.06,North,0,0.0,0.0,80,0.00,,,0.00,vanprod,2013-08-26 07:25:00,
2013-08-26 03:35:00,63.7,57.0,30.05,North,0,0.0,0.0,79,0.00,,,0.00,vanprod,2013-08-26 07:35:00,
2013-08-26 03:45:00,63.7,58.0,30.04,North,0,0.0,0.0,81,0.00,,,0.00,vanprod,2013-08-26 07:45:00,
2013-08-26 03:55:00,63.7,57.0,30.04,North,0,0.0,0.0,80,0.00,,,0.00,vanprod,2013-08-26 07:55:00,
2013-08-26 04:05:00,63.7,58.0,30.03,North,0,0.0,0.0,82,0.00,,,0.00,vanprod,2013-08-26 08:05:00,
2013-08-26 04:15:00,63.5,58.0,30.02,North,0,0.0,0.0,81,0.00,,,0.00,vanprod,2013-08-26 08:15:00,
2013-08-26 04:25:00,63.5,58.0,30.02,North,0,0.0,0.0,82,0.00,,,0.00,vanprod,2013-08-26 08:25:00,
2013-08-26 04:35:00,63.5,58.0,30.02,North,0,0.0,0.0,82,0.00,,,0.00,vanprod,2013-08-26 08:35:00,
2013-08-26 04:45:00,63.4,58.0,30.02,North,0,0.0,0.0,81,0.00,,,0.00,vanprod,2013-08-26 08:45:00,
2013-08-26 04:55:00,63.4,58.0,30.02,North,0,0.0,0.0,82,0.00,,,0.00,vanprod,2013-08-26 08:55:00,
2013-08-26 05:05:00,63.2,58.0,30.02,North,0,0.0,0.0,83,0.00,,,0.00,vanprod,2013-08-26 09:05:00,
2013-08-26 05:15:00,63.2,58.0,30.02,North,0,0.0,0.0,83,0.00,,,0.00,vanprod,2013-08-26 09:15:00,
2013-08-26 05:25:00,63.2,58.0,30.02,North,0,0.0,0.0,84,0.00,,,0.00,vanprod,2013-08-26 09:25:00,
2013-08-26 05:35:00,63.1,58.0,30.01,North,0,0.0,0.0,84,0.00,,,0.00,vanprod,2013-08-26 09:35:00,
2013-08-26 05:45:00,62.9,58.0,30.01,North,0,0.0,0.0,84,0.00,,,0.00,vanprod,2013-08-26 09:45:00,
2013-08-26 05:55:00,62.9,58.0,30.01,North,0,0.0,0.0,85,0.00,,,0.00,vanprod,2013-08-26 09:55:00,
2013-08-26 06:05:00,62.7,58.0,30.02,North,0,0.0,0.0,86,0.00,,,0.00,vanprod,2013-08-26 10:05:00,
2013-08-26 06:15:00,62.4,59.0,30.01,North,0,0.0,0.0,88,0.00,,,0.00,vanprod,2013-08-26 10:15:00,
2013-08-26 06:25:00,62.3,59.0,30.01,North,0,0.0,0.0,89,0.00,,,0.00,vanprod,2013-08-26 10:25:00,
2013-08-26 06:35:00,62.1,59.0,30.01,North,0,0.0,0.0,89,0.00,,,0.00,vanprod,2013-08-26 10:35:00,
2013-08-26 06:45:00,62.1,59.0,30.01,North,0,0.0,0.0,90,0.00,,,0.01,vanprod,2013-08-26 10:45:00,
2013-08-26 06:55:00,62.1,60.0,30.01,North,0,0.0,0.0,92,0.00,,,0.01,vanprod,2013-08-26 10:55:00,
2013-08-26 07:05:00,62.1,60.0,30.00,North,0,0.0,0.0,92,0.00,,,0.01,vanprod,2013-08-26 11:05:00,
2013-08-26 07:15:00,62.0,60.0,29.99,North,0,0.0,0.0,93,0.00,,,0.01,vanprod,2013-08-26 11:15:00,
2013-08-26 07:25:00,62.0,60.0,29.99,North,0,0.0,0.0,93,0.00,,,0.01,vanprod,2013-08-26 11:25:00,
2013-08-26 07:35:00,62.0,60.0,29.98,North,0,0.0,0.0,94,0.00,,,0.01,vanprod,2013-08-26 11:35:00,
2013-08-26 07:45:00,62.0,60.0,29.98,North,0,0.0,0.0,94,0.00,,,0.01,vanprod,2013-08-26 11:45:00,
2013-08-26 07:55:00,62.0,60.0,29.98,North,0,0.0,0.0,94,0.00,,,0.01,vanprod,2013-08-26 11:55:00,
2013-08-26 08:05:00,62.1,60.0,29.98,North,0,0.0,0.0,94,0.00,,,0.01,vanprod,2013-08-26 12:05:00,
2013-08-26 08:15:00,62.1,60.0,29.97,North,0,0.0,0.0,94,0.00,,,0.01,vanprod,2013-08-26 12:15:00,
2013-08-26 08:25:00,62.3,61.0,29.97,North,0,0.0,0.0,94,0.00,,,0.01,vanprod,2013-08-26 12:25:00,
2013-08-26 08:35:00,62.4,61.0,29.96,North,0,0.0,0.0,94,0.00,,,0.01,vanprod,2013-08-26 12:35:00,
2013-08-26 08:45:00,62.4,61.0,29.97,North,0,0.0,0.0,94,0.00,,,0.01,vanprod,2013-08-26 12:45:00,
2013-08-26 08:55:00,62.6,61.0,29.97,North,0,0.0,0.0,95,0.00,,,0.01,vanprod,2013-08-26 12:55:00,
2013-08-26 09:05:00,62.7,61.0,29.96,North,0,0.0,0.0,95,0.00,,,0.01,vanprod,2013-08-26 13:05:00,
2013-08-26 09:15:00,62.9,61.0,29.96,North,0,0.0,0.0,95,0.00,,,0.01,vanprod,2013-08-26 13:15:00,
2013-08-26 09:25:00,63.1,62.0,29.96,North,0,0.0,0.0,95,0.00,,,0.01,vanprod,2013-08-26 13:25:00,
2013-08-26 09:35:00,63.2,62.0,29.96,North,0,0.0,0.0,95,0.00,,,0.01,vanprod,2013-08-26 13:35:00,
2013-08-26 09:45:00,63.5,62.0,29.95,North,0,0.0,0.0,95,0.00,,,0.01,vanprod,2013-08-26 13:45:00,
2013-08-26 09:55:00,63.9,62.0,29.95,North,0,0.0,0.0,95,0.00,,,0.01,vanprod,2013-08-26 13:55:00,
2013-08-26 10:05:00,64.3,63.0,29.94,North,0,0.0,0.0,94,0.00,,,0.01,vanprod,2013-08-26 14:05:00,
2013-08-26 10:15:00,64.8,63.0,29.94,North,0,0.0,0.0,94,0.00,,,0.01,vanprod,2013-08-26 14:15:00,
2013-08-26 10:25:00,65.5,63.0,29.94,North,0,0.0,0.0,92,0.00,,,0.01,vanprod,2013-08-26 14:25:00,
2013-08-26 10:35:00,66.0,62.0,29.94,North,0,0.0,0.0,88,0.00,,,0.01,vanprod,2013-08-26 14:35:00,
2013-08-26 10:45:00,66.8,63.0,29.93,North,0,0.0,0.0,89,0.00,,,0.01,vanprod,2013-08-26 14:45:00,
2013-08-26 10:55:00,67.3,63.0,29.93,North,0,0.0,0.0,86,0.00,,,0.01,vanprod,2013-08-26 14:55:00,
2013-08-26 11:05:00,67.9,64.0,29.92,North,0,0.0,1.0,86,0.00,,,0.01,vanprod,2013-08-26 15:05:00,
2013-08-26 11:15:00,68.9,63.0,29.91,North,0,0.0,0.0,81,0.00,,,0.02,vanprod,2013-08-26 15:15:00,
2013-08-26 11:25:00,69.8,63.0,29.91,North,0,0.0,0.0,80,0.00,,,0.02,vanprod,2013-08-26 15:25:00,
2013-08-26 11:35:00,70.3,64.0,29.91,North,0,0.0,0.0,79,0.00,,,0.02,vanprod,2013-08-26 15:35:00,
2013-08-26 11:45:00,70.6,64.0,29.90,North,0,0.0,0.0,80,0.00,,,0.02,vanprod,2013-08-26 15:45:00,
2013-08-26 11:55:00,71.3,65.0,29.90,North,0,0.0,0.0,80,0.00,,,0.02,vanprod,2013-08-26 15:55:00,
2013-08-26 12:05:00,72.3,64.0,29.89,South,171,0.0,1.0,76,0.00,,,0.02,vanprod,2013-08-26 16:05:00,
2013-08-26 12:15:00,73.0,65.0,29.88,South,171,0.0,0.0,77,0.00,,,0.02,vanprod,2013-08-26 16:15:00,
2013-08-26 12:25:00,73.3,65.0,29.88,South,171,0.0,0.0,74,0.00,,,0.02,vanprod,2013-08-26 16:25:00,
2013-08-26 12:35:00,74.0,66.0,29.89,SSE,160,0.0,0.0,75,0.00,,,0.02,vanprod,2013-08-26 16:35:00,
2013-08-26 12:45:00,74.6,66.0,29.88,SSE,160,0.0,1.0,73,0.00,,,0.02,vanprod,2013-08-26 16:45:00,
2013-08-26 12:55:00,74.9,66.0,29.88,SSE,160,0.0,0.0,73,0.00,,,0.02,vanprod,2013-08-26 16:55:00,
2013-08-26 13:05:00,75.3,66.0,29.88,SSE,151,0.0,0.0,72,0.00,,,0.02,vanprod,2013-08-26 17:05:00,
2013-08-26 13:15:00,75.8,67.0,29.87,SSE,151,0.0,0.0,74,0.00,,,0.02,vanprod,2013-08-26 17:15:00,
2013-08-26 13:25:00,76.1,67.0,29.87,SSE,151,0.0,0.0,74,0.00,,,0.02,vanprod,2013-08-26 17:25:00,
2013-08-26 13:35:00,76.1,67.0,29.87,East,89,0.0,0.0,74,0.00,,,0.02,vanprod,2013-08-26 17:35:00,
2013-08-26 13:45:00,76.5,67.0,29.85,East,89,0.0,0.0,73,0.00,,,0.02,vanprod,2013-08-26 17:45:00,
2013-08-26 13:55:00,76.7,68.0,29.85,East,89,0.0,0.0,74,0.00,,,0.02,vanprod,2013-08-26 17:55:00,
2013-08-26 14:05:00,76.8,68.0,29.85,South,181,0.0,0.0,74,0.00,,,0.02,vanprod,2013-08-26 18:05:00,
2013-08-26 14:15:00,76.8,68.0,29.84,South,181,0.0,1.0,73,0.00,,,0.02,vanprod,2013-08-26 18:15:00,
2013-08-26 14:25:00,76.7,69.0,29.84,South,178,0.0,0.0,76,0.00,,,0.02,vanprod,2013-08-26 18:25:00,
2013-08-26 14:35:00,76.7,69.0,29.84,South,178,0.0,0.0,77,0.00,,,0.02,vanprod,2013-08-26 18:35:00,
2013-08-26 14:45:00,76.5,68.0,29.84,South,178,0.0,0.0,75,0.00,,,0.02,vanprod,2013-08-26 18:45:00,
2013-08-26 14:55:00,76.5,68.0,29.84,SSE,165,0.0,0.0,75,0.00,,,0.02,vanprod,2013-08-26 18:55:00,
2013-08-26 15:05:00,76.3,68.0,29.83,SSE,165,0.0,0.0,75,0.00,,,0.02,vanprod,2013-08-26 19:05:00,
2013-08-26 15:15:00,76.5,69.0,29.83,SSE,165,0.0,0.0,76,0.00,,,0.02,vanprod,2013-08-26 19:15:00,
2013-08-26 15:25:00,76.5,69.0,29.83,SSE,148,0.0,0.0,77,0.00,,,0.02,vanprod,2013-08-26 19:25:00,
2013-08-26 15:35:00,76.5,69.0,29.82,SSE,148,0.0,0.0,76,0.00,,,0.02,vanprod,2013-08-26 19:35:00,
2013-08-26 15:45:00,76.7,69.0,29.82,SSE,148,0.0,0.0,77,0.00,,,0.02,vanprod,2013-08-26 19:45:00,
2013-08-26 15:55:00,76.8,69.0,29.82,South,188,0.0,0.0,76,0.00,,,0.02,vanprod,2013-08-26 19:55:00,
2013-08-26 16:05:00,76.8,68.0,29.81,South,188,0.0,0.0,75,0.00,,,0.02,vanprod,2013-08-26 20:05:00,
2013-08-26 16:15:00,76.7,68.0,29.81,South,188,0.0,0.0,75,0.00,,,0.02,vanprod,2013-08-26 20:15:00,
2013-08-26 16:25:00,76.7,69.0,29.81,South,190,0.0,0.0,77,0.00,,,0.02,vanprod,2013-08-26 20:25:00,
2013-08-26 16:35:00,76.5,69.0,29.81,South,190,0.0,0.0,76,0.00,,,0.02,vanprod,2013-08-26 20:35:00,
2013-08-26 16:45:00,76.5,69.0,29.81,South,190,0.0,0.0,77,0.00,,,0.02,vanprod,2013-08-26 20:45:00,
2013-08-26 16:55:00,76.5,69.0,29.81,SSE,159,0.0,0.0,76,0.00,,,0.02,vanprod,2013-08-26 20:55:00,
2013-08-26 17:05:00,76.3,68.0,29.81,SSE,159,0.0,0.0,76,0.00,,,0.02,vanprod,2013-08-26 21:05:00,
2013-08-26 17:15:00,76.0,68.0,29.81,SSE,159,0.0,0.0,76,0.00,,,0.02,vanprod,2013-08-26 21:15:00,
2013-08-26 17:25:00,75.8,68.0,29.81,SSE,151,0.0,0.0,77,0.00,,,0.02,vanprod,2013-08-26 21:25:00,
2013-08-26 17:35:00,75.6,68.0,29.81,SSE,151,0.0,0.0,78,0.00,,,0.02,vanprod,2013-08-26 21:35:00,
2013-08-26 17:45:00,75.4,67.0,29.81,SSE,151,0.0,0.0,76,0.00,,,0.02,vanprod,2013-08-26 21:45:00,
2013-08-26 17:55:00,75.6,68.0,29.81,SSE,151,0.0,0.0,76,0.00,,,0.02,vanprod,2013-08-26 21:55:00,
2013-08-26 18:05:00,75.6,68.0,29.80,ESE,119,0.0,0.0,77,0.00,,,0.02,vanprod,2013-08-26 22:05:00,
2013-08-26 18:15:00,75.4,68.0,29.80,ESE,119,0.0,0.0,77,0.00,,,0.02,vanprod,2013-08-26 22:15:00,
2013-08-26 18:25:00,75.3,68.0,29.80,ESE,119,0.0,0.0,78,0.00,,,0.02,vanprod,2013-08-26 22:25:00,
2013-08-26 18:35:00,74.9,68.0,29.80,South,178,0.0,0.0,79,0.00,,,0.02,vanprod,2013-08-26 22:35:00,
2013-08-26 18:45:00,74.7,68.0,29.80,South,178,0.0,0.0,80,0.00,,,0.02,vanprod,2013-08-26 22:45:00,
2013-08-26 18:55:00,74.4,68.0,29.80,South,178,0.0,0.0,81,0.00,,,0.02,vanprod,2013-08-26 22:55:00,
2013-08-26 19:05:00,74.0,68.0,29.80,South,178,0.0,0.0,82,0.00,,,0.02,vanprod,2013-08-26 23:05:00,
2013-08-26 19:15:00,73.9,68.0,29.79,South,178,0.0,0.0,83,0.00,,,0.02,vanprod,2013-08-26 23:15:00,
2013-08-26 19:25:00,73.5,68.0,29.79,South,178,0.0,0.0,83,0.00,,,0.02,vanprod,2013-08-26 23:25:00,
2013-08-26 19:35:00,73.2,68.0,29.79,South,178,0.0,0.0,83,0.00,,,0.02,vanprod,2013-08-26 23:35:00,
2013-08-26 19:45:00,72.8,68.0,29.79,South,178,0.0,0.0,84,0.00,,,0.02,vanprod,2013-08-26 23:45:00,
2013-08-26 19:55:00,72.5,67.0,29.80,South,178,0.0,0.0,84,0.00,,,0.02,vanprod,2013-08-26 23:55:00,
2013-08-26 20:05:00,72.1,67.0,29.79,South,178,0.0,0.0,85,0.00,,,0.02,vanprod,2013-08-27 00:05:00,
2013-08-26 20:15:00,71.8,67.0,29.79,South,178,0.0,0.0,85,0.00,,,0.02,vanprod,2013-08-27 00:15:00,
2013-08-26 20:25:00,71.6,67.0,29.79,South,178,0.0,0.0,86,0.00,,,0.02,vanprod,2013-08-27 00:25:00,
2013-08-26 20:35:00,71.5,67.0,29.80,South,178,0.0,0.0,87,0.00,,,0.02,vanprod,2013-08-27 00:35:00,
2013-08-26 20:45:00,71.5,67.0,29.80,South,178,0.0,0.0,87,0.00,,,0.02,vanprod,2013-08-27 00:45:00,
2013-08-26 20:55:00,71.3,68.0,29.80,South,178,0.0,0.0,88,0.00,,,0.02,vanprod,2013-08-27 00:55:00,
2013-08-26 21:05:00,71.3,68.0,29.80,South,178,0.0,0.0,88,0.00,,,0.02,vanprod,2013-08-27 01:05:00,
2013-08-26 21:15:00,71.3,68.0,29.79,South,178,0.0,0.0,88,0.00,,,0.02,vanprod,2013-08-27 01:15:00,
2013-08-26 21:25:00,71.1,67.0,29.79,South,178,0.0,0.0,88,0.00,,,0.02,vanprod,2013-08-27 01:25:00,
2013-08-26 21:35:00,70.9,67.0,29.79,South,178,0.0,0.0,88,0.00,,,0.02,vanprod,2013-08-27 01:35:00,
2013-08-26 21:45:00,70.8,67.0,29.79,South,178,0.0,0.0,88,0.00,,,0.02,vanprod,2013-08-27 01:45:00,
2013-08-26 21:55:00,70.8,67.0,29.79,South,178,0.0,0.0,89,0.00,,,0.02,vanprod,2013-08-27 01:55:00,
2013-08-26 22:05:00,70.6,67.0,29.79,South,178,0.0,0.0,89,0.00,,,0.02,vanprod,2013-08-27 02:05:00,
2013-08-26 22:15:00,70.4,67.0,29.79,South,178,0.0,0.0,89,0.00,,,0.02,vanprod,2013-08-27 02:15:00,
2013-08-26 22:25:00,70.4,67.0,29.80,South,183,0.0,0.0,89,0.00,,,0.02,vanprod,2013-08-27 02:25:00,
2013-08-26 22:35:00,70.3,67.0,29.80,South,183,0.0,0.0,89,0.00,,,0.02,vanprod,2013-08-27 02:35:00,
2013-08-26 22:45:00,70.3,67.0,29.80,South,183,0.0,0.0,89,0.00,,,0.02,vanprod,2013-08-27 02:45:00,
2013-08-26 22:55:00,70.3,67.0,29.80,South,183,0.0,0.0,89,0.00,,,0.02,vanprod,2013-08-27 02:55:00,
2013-08-26 23:05:00,70.3,67.0,29.79,South,183,0.0,0.0,89,0.00,,,0.02,vanprod,2013-08-27 03:05:00,
2013-08-26 23:15:00,70.1,67.0,29.79,South,183,0.0,0.0,89,0.00,,,0.02,vanprod,2013-08-27 03:15:00,
2013-08-26 23:25:00,70.1,67.0,29.79,South,183,0.0,0.0,89,0.00,,,0.02,vanprod,2013-08-27 03:25:00,
2013-08-26 23:35:00,70.1,67.0,29.78,South,183,0.0,0.0,89,0.00,,,0.02,vanprod,2013-08-27 03:35:00,
2013-08-26 23:45:00,69.9,66.0,29.78,South,183,0.0,0.0,89,0.00,,,0.02,vanprod,2013-08-27 03:45:00,
2013-08-26 23:55:00,69.8,67.0,29.77,South,183,0.0,0.0,90,0.00,,,0.02,vanprod,2013-08-27 03:55:00,